Theta_e
299 299 298 298 298 298 298 298 297 297 297 297 297 297 298 302 304 307 306 307 306 306 309 309 308 308 308 309 306 306 309 309 310 309 309 310 310 311 314 322 323 328 334 336 334
299 298 298 298 298 298 298 298 297 297 297 297 297 296 298 303 305 306 305 307 307 307 308 308 308 307 307 309 307 307 308 309 309 309 307 306 307 308 317 322 323 329 334 335 333
299 298 298 298 297 297 297 297 297 297 297 297 296 296 299 304 306 306 306 307 307 306 307 307 307 306 307 308 308 308 308 307 307 307 307 305 306 307 316 322 322 324 328 332 332
298 298 298 297 297 297 297 297 297 297 297 297 296 297 301 307 310 305 307 307 307 307 307 307 307 306 306 307 307 307 307 307 307 307 305 305 305 305 307 318 322 322 325 329 333
298 298 298 297 297 297 297 297 297 297 297 297 297 299 303 309 306 306 307 307 308 308 308 307 306 306 307 306 306 306 307 306 306 306 305 304 304 304 304 308 317 319 328 330 329
298 297 297 297 297 297 297 297 297 297 297 297 300 302 308 310 305 307 307 308 308 309 308 307 307 306 305 306 306 306 306 306 305 306 305 304 304 303 304 307 316 320 327 330 331
298 297 297 297 297 297 297 297 297 297 297 300 302 303 308 306 306 307 307 309 308 308 308 308 306 305 305 306 307 307 307 307 307 306 306 304 304 304 305 305 317 322 326 328 330
298 297 297 297 297 297 297 297 297 296 298 301 302 305 309 305 306 306 306 309 309 308 308 308 306 306 305 306 306 307 307 308 306 307 306 304 306 307 306 306 315 323 325 327 327
297 297 297 297 297 297 297 297 296 296 298 302 305 306 307 305 306 306 307 307 308 309 308 308 308 308 307 308 310 308 308 309 308 306 305 305 309 310 310 315 319 323 323 324 325
297 297 297 297 297 297 297 296 296 297 300 302 303 307 306 304 305 308 307 307 309 310 310 310 309 309 310 311 312 311 309 311 310 308 305 308 309 309 310 317 314 322 321 321 322
297 297 297 297 296 296 296 296 301 302 302 301 302 303 304 305 307 308 306 309 310 310 313 311 313 312 310 310 309 307 310 311 309 309 308 307 309 307 312 313 312 321 320 320 320
297 297 296 296 296 296 296 297 296 297 302 299 299 302 303 304 306 307 306 310 311 313 313 314 313 311 310 312 313 311 312 311 309 309 308 307 307 306 308 307 312 316 315 311 316
297 296 296 296 296 296 296 296 297 297 304 300 298 301 302 304 307 307 305 308 310 312 312 312 312 311 314 313 313 315 315 312 311 307 308 310 308 308 307 309 311 313 312 311 311
298 296 296 296 298 295 296 296 298 295 309 300 302 303 303 305 308 305 305 307 311 310 310 311 310 311 313 312 311 317 314 313 312 313 315 310 311 308 308 309 310 311 310 309 310
297 296 295 295 296 296 295 296 297 297 312 300 302 302 303 305 304 306 306 308 309 308 308 309 308 309 312 312 310 314 311 313 311 311 310 310 309 308 307 308 309 308 309 308 309
296 296 295 296 295 295 295 297 296 310 310 301 301 304 306 305 305 306 307 307 307 309 310 308 308 309 309 309 310 311 313 316 313 312 310 307 309 307 306 307 308 307 307 306 307
296 295 295 295 297 295 296 297 308 310 298 303 303 303 304 305 306 306 308 306 307 312 309 310 309 309 308 310 311 309 311 317 314 308 308 307 308 307 306 306 307 307 306 305 305
297 296 296 295 295 295 296 304 304 304 302 298 301 302 305 303 304 306 308 309 306 307 309 309 311 308 307 308 308 308 310 310 314 311 309 307 308 306 306 307 307 306 306 305 304
298 296 296 295 295 296 299 305 310 304 299 300 300 304 306 303 302 305 305 306 305 305 308 307 309 308 307 308 308 309 307 307 309 303 308 307 308 307 307 306 306 305 304 303 302
297 296 297 295 295 296 300 304 300 295 299 300 305 301 305 304 305 306 306 302 304 304 304 307 308 308 308 309 309 310 308 310 309 309 308 307 308 307 307 307 305 304 303 302 301
298 298 297 296 295 297 303 303 296 293 298 300 303 300 303 303 301 305 305 301 301 303 305 306 308 309 309 308 308 309 310 309 307 306 310 307 308 307 307 307 305 303 302 302 301
298 299 296 296 297 296 302 296 295 296 297 298 299 301 302 302 303 303 305 302 299 300 306 305 306 307 309 308 307 307 310 309 308 308 305 308 308 307 306 306 304 302 301 300 300
298 297 296 296 300 299 293 294 295 297 298 298 299 301 301 302 301 303 302 299 298 301 303 305 305 307 305 306 306 309 308 309 308 307 308 308 307 306 305 304 303 301 300 299 298
297 299 297 296 297 300 297 297 295 297 299 299 299 300 300 299 296 299 301 299 298 299 299 302 305 305 305 307 304 307 309 309 309 307 308 306 307 306 304 302 301 300 299 298 298
297 300 298 297 297 297 298 297 298 296 297 298 298 299 300 297 298 295 298 299 298 297 299 300 298 299 303 301 300 303 305 307 308 309 307 307 306 306 304 301 301 300 299 298 297
298 296 296 299 298 297 297 297 299 298 296 297 298 298 299 298 299 297 298 299 300 296 298 297 297 295 294 300 298 299 300 302 305 307 308 307 307 305 305 301 300 299 298 298 297
299 297 297 298 298 297 298 299 298 298 297 298 297 298 299 299 297 297 298 297 298 296 293 295 289 291 296 289 290 291 292 298 303 306 307 307 305 301 299 300 299 298 298 297 297
Wind_Speed
5 6 7 8 8 8 9 10 10 10 13 14 15 15 14 14 5 12 12 16 15 16 15 13 12 15 16 7 7 8 4 9 18 17 16 18 18 30 29 14 17 8 3 20 16
5 6 7 7 7 8 9 10 11 11 13 14 15 14 12 11 6 5 17 17 17 16 14 15 15 15 10 8 5 7 5 11 14 15 12 18 21 27 26 10 20 5 3 14 18
5 6 6 7 8 9 10 11 11 12 13 14 14 12 10 6 2 4 18 17 14 13 8 10 10 10 8 10 10 9 12 15 21 24 21 15 15 25 16 7 6 16 14 14 20
6 6 7 7 8 9 10 11 11 12 13 15 12 9 8 5 2 10 17 15 13 13 10 10 7 5 4 5 10 8 15 18 18 23 15 9 16 14 20 16 19 18 21 21 18
6 7 7 8 9 10 11 11 11 12 14 12 10 8 6 2 1 11 16 14 10 8 9 7 5 6 3 6 14 13 12 16 20 20 13 16 18 15 24 22 17 20 12 21 18
6 7 8 8 9 10 11 11 12 12 13 10 7 5 5 1 9 12 13 13 7 8 7 6 2 4 4 5 8 11 13 15 16 17 12 14 18 16 21 16 14 13 9 8 12
7 8 9 9 9 10 11 11 12 12 9 8 5 5 4 1 8 10 12 12 10 7 5 4 4 2 7 7 11 17 14 12 15 14 7 16 11 13 22 23 6 8 2 7 7
8 8 9 8 9 10 11 11 12 9 7 6 4 5 1 7 8 9 12 6 8 6 3 1 7 4 4 9 8 6 4 4 6 10 10 11 8 12 15 18 8 2 3 3 4
8 8 9 8 9 10 10 11 9 5 6 4 5 3 2 7 8 11 12 8 7 6 6 2 6 3 3 4 3 2 5 1 5 13 5 7 7 12 20 6 0 7 6 6 5
7 8 8 8 9 9 9 9 6 4 5 3 5 2 3 7 10 11 13 6 6 10 9 4 1 2 3 3 7 5 2 3 6 4 3 1 7 13 24 10 18 12 14 11 12
7 7 7 7 8 8 7 5 4 3 5 2 2 2 6 13 4 5 15 6 8 10 4 5 1 11 12 7 2 6 2 4 7 10 7 8 9 16 22 19 18 5 20 17 12
6 7 7 6 6 6 5 4 3 2 2 3 3 2 7 10 4 9 11 4 7 3 10 3 4 10 10 11 9 2 4 9 10 14 13 18 19 12 20 17 10 16 25 20 16
5 6 6 5 5 3 4 5 4 0 2 0 2 2 3 5 4 7 12 4 4 7 7 5 6 9 10 11 13 16 7 5 4 2 4 6 16 14 10 14 14 26 24 22 17
6 6 5 4 2 4 3 5 3 2 2 1 1 1 3 4 0 6 9 4 4 5 7 3 9 9 9 9 10 10 14 15 7 1 4 3 3 14 13 13 18 23 25 23 23
7 4 3 1 1 2 4 3 2 1 2 3 1 3 4 3 6 3 8 3 5 7 3 4 10 7 5 5 12 3 4 4 11 4 11 7 5 10 9 18 17 21 20 22 22
6 4 3 2 1 2 3 3 1 3 3 1 2 4 2 3 2 9 3 5 2 4 4 3 3 3 3 11 6 18 5 7 3 3 7 11 4 11 9 13 14 19 19 23 24
6 5 4 4 2 0 1 2 3 2 2 3 2 3 3 3 2 4 3 5 3 5 5 5 5 1 8 5 4 17 7 1 4 5 2 7 9 5 8 8 13 13 18 20 22
7 6 5 5 4 2 1 2 1 1 2 1 2 3 2 5 2 3 3 2 6 4 2 3 3 8 9 3 2 5 5 3 4 3 2 8 5 2 6 12 17 19 19 20 22
9 7 7 6 4 4 2 2 3 3 3 3 1 1 1 2 2 3 3 2 4 5 4 4 2 4 1 3 4 7 6 3 2 1 4 3 3 2 7 7 14 17 19 19 20
12 7 6 8 6 5 3 3 3 1 1 1 3 1 0 1 2 3 2 1 2 3 0 3 4 2 5 5 2 3 4 2 3 2 3 3 5 5 5 6 7 11 15 15 17
14 6 5 10 9 2 2 3 2 3 1 1 3 2 1 1 1 1 2 2 2 2 2 2 2 5 3 4 3 5 3 4 0 1 2 4 2 5 8 6 6 9 11 13 15
13 2 8 15 3 1 3 3 3 4 3 2 1 2 4 4 3 2 2 4 2 2 2 4 1 3 3 3 2 2 2 3 2 2 2 1 2 5 7 10 10 10 10 12 14
13 5 13 19 3 3 2 1 4 4 5 5 3 2 2 3 1 4 2 2 3 2 4 2 2 2 5 4 2 2 2 3 1 1 2 2 3 6 10 8 10 12 11 12 12
12 4 4 11 4 3 4 4 4 7 3 5 4 4 2 1 3 1 4 3 2 2 1 2 2 2 2 0 2 3 1 0 1 1 1 2 6 7 7 8 10 10 11 12 13
10 5 9 5 8 6 4 6 5 6 7 9 2 7 6 3 3 3 2 4 4 3 2 1 3 1 2 3 4 4 4 5 3 3 1 2 8 10 8 8 13 12 11 11 11
13 8 8 7 6 16 8 9 10 5 9 5 5 10 7 5 4 6 6 4 4 4 3 1 1 2 3 2 4 4 8 6 6 4 5 4 4 7 16 19 14 12 11 10 8
25 16 9 11 8 7 6 7 12 12 12 8 14 5 9 8 8 9 9 9 5 6 3 1 4 2 3 3 4 6 8 9 5 4 4 4 5 16 8 13 15 15 13 9 7
Wind_Direction
331 340 354 353 354 350 345 343 343 344 343 348 353 352 357 357 62 25 359 351 349 353 8 350 353 340 338 306 288 292 265 250 251 257 275 281 289 289 289 290 292 219 140 145 175
318 333 346 346 348 344 338 337 337 339 340 343 349 347 355 358 88 4 351 351 356 353 350 342 345 344 328 280 257 208 247 261 292 302 349 345 346 328 322 242 269 120 278 146 154
314 327 333 336 339 339 335 334 334 335 337 342 345 343 354 11 67 332 340 348 349 347 343 342 340 356 341 327 271 243 253 283 290 302 326 333 315 326 338 306 208 359 200 213 155
313 318 322 327 331 330 331 333 330 331 336 340 345 350 360 47 45 327 342 350 353 9 8 352 334 313 324 305 306 294 284 283 280 294 319 283 302 305 307 282 317 325 310 215 181
307 312 315 324 326 325 329 327 327 330 336 342 350 356 360 341 10 340 343 352 20 359 350 344 342 349 284 312 304 278 281 281 293 284 292 297 288 283 285 274 298 314 346 190 205
298 303 314 321 322 322 323 322 326 329 335 342 352 13 68 257 336 342 353 359 355 13 348 345 329 295 285 277 284 298 301 294 292 294 278 273 291 281 273 276 279 309 333 183 190
295 305 314 322 319 319 320 320 324 328 335 344 2 11 73 338 351 3 345 340 13 4 331 355 67 43 319 272 288 290 287 289 270 244 236 253 273 255 262 270 313 311 87 163 165
300 311 315 318 315 320 319 321 324 329 344 352 20 88 345 335 1 355 348 356 347 351 285 328 42 285 237 297 293 293 308 325 277 228 200 224 294 318 229 253 259 257 17 77 195
304 309 312 316 319 322 320 324 328 337 352 7 36 50 114 352 358 351 2 334 2 297 307 232 24 241 314 278 267 19 315 215 312 139 124 194 312 360 343 180 156 109 102 102 102
303 305 310 317 321 323 325 330 338 355 5 33 32 343 344 323 314 10 338 328 337 294 260 220 110 310 231 334 356 313 324 17 25 351 161 101 312 338 335 357 24 131 121 108 88
298 301 310 321 326 332 339 345 355 9 36 96 319 310 306 334 20 9 349 351 316 279 296 141 90 3 323 314 161 296 110 149 34 7 70 1 355 16 360 0 344 153 102 90 90
299 302 311 325 334 340 356 42 10 299 314 301 316 349 333 353 339 5 12 351 319 19 321 254 54 350 303 306 118 106 46 62 79 93 79 70 46 16 32 7 315 61 75 78 71
291 299 312 331 340 345 19 27 4 41 261 214 282 320 327 343 337 343 7 357 321 314 323 25 348 347 339 20 5 53 62 72 122 292 26 327 48 36 31 11 40 45 62 61 65
287 295 311 331 332 1 19 12 28 32 59 90 133 285 357 350 323 342 15 34 230 326 329 337 340 348 358 20 2 59 108 113 142 235 53 191 70 28 29 52 41 43 43 46 50
272 279 280 328 311 17 335 356 4 75 12 39 11 321 356 8 325 1 11 55 1 325 288 311 330 346 30 350 329 302 297 193 121 63 74 79 75 352 17 36 42 42 40 43 55
254 241 223 222 240 298 337 354 18 54 262 33 302 324 254 57 52 331 53 16 338 328 293 317 268 336 299 293 260 308 248 205 164 71 39 21 114 22 19 20 37 48 46 43 46
237 219 208 203 202 238 352 27 31 146 46 304 347 354 309 33 37 9 61 42 49 46 10 316 9 271 342 329 352 354 358 63 21 31 60 41 57 36 29 41 48 57 54 47 51
217 207 205 195 187 153 94 55 59 308 207 339 314 261 11 354 98 6 353 76 58 50 352 348 303 359 342 62 290 307 1 83 93 45 80 34 34 21 61 65 66 58 56 52 49
197 203 207 188 176 152 106 75 224 207 128 174 166 323 4 113 341 321 83 59 41 19 92 333 279 337 55 315 329 328 42 328 108 97 84 100 65 101 96 66 56 58 50 46 45
187 180 223 188 166 152 78 258 193 286 22 315 193 317 265 11 9 23 114 43 83 57 110 85 303 319 308 300 237 330 291 39 321 95 104 150 173 147 109 85 60 45 47 48 53
175 168 209 177 155 142 183 221 174 194 149 203 181 154 294 150 339 306 104 124 71 32 297 144 221 302 334 29 18 347 20 355 239 26 116 157 177 123 127 106 98 76 58 55 54
174 162 175 165 107 137 191 175 155 158 187 167 322 101 183 155 184 230 0 59 64 342 346 70 67 302 31 94 113 269 329 322 80 330 353 25 166 108 121 113 113 92 74 65 60
170 133 167 175 176 198 115 169 208 162 191 167 189 218 200 209 186 163 170 112 62 332 340 356 106 308 330 338 212 278 73 312 271 271 246 124 205 129 129 131 109 104 90 76 65
161 134 148 199 230 183 147 197 203 209 226 177 150 132 122 175 29 211 173 157 142 102 320 281 114 195 249 202 333 282 192 204 281 63 242 243 141 168 168 142 132 115 100 89 75
178 191 175 177 228 193 156 151 144 174 230 181 195 208 171 159 171 218 277 125 196 169 173 105 145 34 14 350 323 297 283 287 248 281 150 145 156 178 166 152 140 130 117 98 84
169 159 169 175 167 167 186 202 174 160 161 212 215 192 190 162 187 191 155 166 205 161 183 201 138 65 288 356 324 284 269 256 257 257 244 242 154 147 146 130 135 133 123 111 94
198 188 165 169 154 163 199 182 192 149 207 185 195 157 192 196 89 71 111 77 97 146 131 147 119 92 272 330 332 312 229 201 198 216 176 192 149 116 119 148 146 140 139 131 106